Simultaneous Nadir Overpasses (SNOs) Predictions

Prediction of SNOs near US between AQUA and NPP Satellite Orbit:

Table of predicted SNOs near US for the next 10.0 days since TLE Epoch: 9/17/2022
Index Date (AQUA) Time (AQUA) AQUA Lat,Lon Date (NPP) Time (NPP) NPP Lat,Lon Distance(km) Time Diff (sec)
1 09/21/2022 06:51:03 47.21, -68.64 09/21/2022 06:50:16 47.68, -71.52 222.56 47
2 09/23/2022 19:26:38 49.96, -96.38 09/23/2022 19:21:14 49.50, -99.23 211.65 324
3 09/26/2022 08:54:37 20.02,-105.46 09/26/2022 08:46:17 19.19,-107.13 198.58 500
